Time,TemperatureF,DewpointF,PressureIn,WindDirection,WindDirectionDegrees,WindSpeedMPH,WindSpeedGustMPH,Humidity,HourlyPrecipIn,Conditions,Clouds,dailyrainin,SolarRadiationWatts/m^2,SoftwareType,DateUTC
2013-05-09 00:01:00,58.1,42.0,29.95,SE,125,0.0,0.0,55,0.00,,,0.00,0,Wunderground v.1.15,2013-05-09 05:01:00,
2013-05-09 00:06:00,57.9,42.3,29.95,SE,127,0.0,0.0,56,0.00,,,0.00,0,Wunderground v.1.15,2013-05-09 05:06:00,
2013-05-09 00:16:00,57.6,42.5,29.95,SE,124,0.0,0.0,57,0.00,,,0.00,0,Wunderground v.1.15,2013-05-09 05:16:00,
2013-05-09 00:21:00,57.4,42.3,29.95,SE,125,0.0,0.0,57,0.00,,,0.00,0,Wunderground v.1.15,2013-05-09 05:21:00,
2013-05-09 00:26:00,57.2,42.5,29.94,SE,125,0.0,0.0,58,0.00,,,0.00,0,Wunderground v.1.15,2013-05-09 05:26:00,
2013-05-09 00:31:00,57.0,41.9,29.94,SE,129,0.0,0.0,57,0.00,,,0.00,0,Wunderground v.1.15,2013-05-09 05:31:00,
2013-05-09 00:41:00,57.0,42.4,29.94,SE,127,0.0,0.0,58,0.00,,,0.00,0,Wunderground v.1.15,2013-05-09 05:41:00,
2013-05-09 00:51:00,56.7,42.5,29.94,SE,126,0.0,0.0,59,0.00,,,0.00,0,Wunderground v.1.15,2013-05-09 05:51:00,
2013-05-09 00:56:00,56.5,42.3,29.94,SE,124,0.0,0.0,59,0.00,,,0.00,0,Wunderground v.1.15,2013-05-09 05:56:00,
2013-05-09 01:01:00,56.3,42.6,29.94,SE,129,0.0,0.0,60,0.00,,,0.00,0,Wunderground v.1.15,2013-05-09 06:01:00,
2013-05-09 01:11:00,56.3,42.6,29.94,SE,128,0.0,0.0,60,0.00,,,0.00,0,Wunderground v.1.15,2013-05-09 06:11:00,
2013-05-09 01:16:00,56.3,42.1,29.94,SSE,160,0.0,0.0,59,0.00,,,0.00,0,Wunderground v.1.15,2013-05-09 06:16:00,
2013-05-09 01:21:00,56.3,42.1,29.93,SSE,153,0.0,0.0,59,0.00,,,0.00,0,Wunderground v.1.15,2013-05-09 06:21:00,
2013-05-09 01:31:00,56.2,42.1,29.93,North,359,0.0,0.0,59,0.00,,,0.00,0,Wunderground v.1.15,2013-05-09 06:31:00,
2013-05-09 01:36:00,56.1,42.0,29.93,SSE,156,0.0,0.0,59,0.00,,,0.00,0,Wunderground v.1.15,2013-05-09 06:36:00,
2013-05-09 01:41:00,55.9,41.8,29.93,SSE,155,0.0,0.0,59,0.00,,,0.00,0,Wunderground v.1.15,2013-05-09 06:41:00,
2013-05-09 01:51:00,55.6,41.5,29.93,SSE,159,0.0,0.0,59,0.00,,,0.00,0,Wunderground v.1.15,2013-05-09 06:51:00,
2013-05-09 02:01:00,55.7,42.0,29.93,SSE,157,0.0,0.0,60,0.00,,,0.00,0,Wunderground v.1.15,2013-05-09 07:01:00,
2013-05-09 02:06:00,55.6,41.9,29.93,North,359,0.0,0.0,60,0.00,,,0.00,0,Wunderground v.1.15,2013-05-09 07:06:00,
2013-05-09 02:16:00,55.4,42.6,29.93,SSE,155,0.0,0.0,62,0.00,,,0.00,0,Wunderground v.1.15,2013-05-09 07:16:00,
2013-05-09 02:26:00,55.1,42.3,29.93,SSE,156,0.0,0.0,62,0.00,,,0.00,0,Wunderground v.1.15,2013-05-09 07:26:00,
2013-05-09 02:31:00,54.9,42.5,29.93,SSE,156,0.0,0.0,63,0.00,,,0.00,0,Wunderground v.1.15,2013-05-09 07:31:00,
2013-05-09 02:41:00,54.4,42.5,29.93,SSE,156,0.0,0.0,64,0.00,,,0.00,0,Wunderground v.1.15,2013-05-09 07:41:00,
2013-05-09 02:46:00,54.3,42.4,29.93,SSE,156,0.0,0.0,64,0.00,,,0.00,0,Wunderground v.1.15,2013-05-09 07:46:00,
2013-05-09 02:56:00,54.4,42.9,29.93,SSE,156,0.0,0.0,65,0.00,,,0.00,0,Wunderground v.1.15,2013-05-09 07:56:00,
2013-05-09 03:01:00,54.4,42.9,29.93,SSE,155,0.0,0.0,65,0.00,,,0.00,0,Wunderground v.1.15,2013-05-09 08:01:00,
2013-05-09 03:11:00,54.5,43.0,29.93,SSE,155,0.0,0.0,65,0.00,,,0.00,0,Wunderground v.1.15,2013-05-09 08:11:00,
2013-05-09 03:21:00,54.7,42.8,29.93,North,359,0.0,0.0,64,0.00,,,0.00,0,Wunderground v.1.15,2013-05-09 08:21:00,
2013-05-09 03:26:00,54.9,42.9,29.93,SSE,154,0.0,0.0,64,0.00,,,0.00,0,Wunderground v.1.15,2013-05-09 08:26:00,
2013-05-09 03:36:00,55.0,43.0,29.92,SSE,156,0.0,0.0,64,0.00,,,0.00,0,Wunderground v.1.15,2013-05-09 08:36:00,
2013-05-09 03:41:00,55.0,43.0,29.93,SSE,156,0.0,0.0,64,0.00,,,0.00,0,Wunderground v.1.15,2013-05-09 08:41:00,
2013-05-09 03:51:00,55.4,43.4,29.93,SSE,160,0.0,0.0,64,0.00,,,0.00,0,Wunderground v.1.15,2013-05-09 08:51:00,
2013-05-09 03:56:00,55.4,43.4,29.93,SSE,157,0.0,0.0,64,0.00,,,0.00,0,Wunderground v.1.15,2013-05-09 08:56:00,
2013-05-09 04:01:00,55.3,43.3,29.93,SSE,157,0.0,0.0,64,0.00,,,0.00,0,Wunderground v.1.15,2013-05-09 09:01:00,
2013-05-09 04:11:00,55.2,43.6,29.93,SSE,158,0.0,0.0,65,0.00,,,0.00,0,Wunderground v.1.15,2013-05-09 09:11:00,
2013-05-09 04:21:00,54.9,43.4,29.93,North,359,0.0,0.0,65,0.00,,,0.00,0,Wunderground v.1.15,2013-05-09 09:21:00,
2013-05-09 04:26:00,54.7,43.6,29.92,SSE,158,0.0,0.0,66,0.00,,,0.00,0,Wunderground v.1.15,2013-05-09 09:26:00,
2013-05-09 04:31:00,54.6,43.5,29.92,North,359,0.0,0.0,66,0.00,,,0.00,0,Wunderground v.1.15,2013-05-09 09:31:00,
2013-05-09 04:41:00,54.2,43.5,29.92,SSE,156,0.0,0.0,67,0.00,,,0.00,0,Wunderground v.1.15,2013-05-09 09:41:00,
2013-05-09 04:51:00,53.9,43.2,29.92,SSE,157,0.0,0.0,67,0.00,,,0.00,0,Wunderground v.1.15,2013-05-09 09:51:00,
2013-05-09 04:56:00,53.8,43.1,29.92,SSE,156,0.0,0.0,67,0.00,,,0.00,0,Wunderground v.1.15,2013-05-09 09:56:00,
2013-05-09 05:01:00,53.7,43.0,29.92,SSE,158,0.0,0.0,67,0.00,,,0.00,0,Wunderground v.1.15,2013-05-09 10:01:00,
2013-05-09 05:11:00,53.4,43.1,29.92,SSE,157,0.0,0.0,68,0.00,,,0.00,0,Wunderground v.1.15,2013-05-09 10:11:00,
2013-05-09 05:21:00,53.2,42.9,29.93,SSE,157,0.0,0.0,68,0.00,,,0.00,0,Wunderground v.1.15,2013-05-09 10:21:00,
2013-05-09 05:26:00,53.2,43.3,29.92,SSE,156,0.0,0.0,69,0.00,,,0.00,0,Wunderground v.1.15,2013-05-09 10:26:00,
2013-05-09 05:31:00,53.1,43.2,29.93,SSE,156,0.0,0.0,69,0.00,,,0.00,5,Wunderground v.1.15,2013-05-09 10:31:00,
2013-05-09 05:41:00,53.2,43.7,29.92,SSE,155,0.0,0.0,70,0.00,,,0.00,11,Wunderground v.1.15,2013-05-09 10:41:00,
2013-05-09 05:46:00,53.4,43.9,29.92,SSE,154,0.0,0.0,70,0.00,,,0.00,14,Wunderground v.1.15,2013-05-09 10:46:00,
2013-05-09 05:56:00,53.5,44.3,29.92,SSE,157,0.0,0.0,71,0.00,,,0.00,26,Wunderground v.1.15,2013-05-09 10:56:00,
2013-05-09 06:01:00,53.6,44.4,29.92,SSE,158,0.0,0.0,71,0.00,,,0.00,30,Wunderground v.1.15,2013-05-09 11:01:00,
2013-05-09 06:11:00,53.8,44.6,29.92,SSE,159,0.0,0.0,71,0.00,,,0.00,46,Wunderground v.1.15,2013-05-09 11:11:00,
2013-05-09 06:21:00,54.1,44.5,29.93,SSE,152,0.0,0.0,70,0.00,,,0.00,60,Wunderground v.1.15,2013-05-09 11:21:00,
2013-05-09 06:26:00,54.4,44.4,29.93,SSE,157,0.0,0.0,69,0.00,,,0.00,62,Wunderground v.1.15,2013-05-09 11:26:00,
2013-05-09 06:31:00,54.7,44.7,29.93,SSE,157,0.0,0.0,69,0.00,,,0.00,69,Wunderground v.1.15,2013-05-09 11:31:00,
2013-05-09 06:36:00,55.0,45.0,29.93,SSE,155,0.0,0.0,69,0.00,,,0.00,77,Wunderground v.1.15,2013-05-09 11:36:00,
2013-05-09 06:46:00,56.0,45.6,29.93,SSE,155,0.0,0.0,68,0.00,,,0.00,90,Wunderground v.1.15,2013-05-09 11:46:00,
2013-05-09 06:51:00,56.5,45.3,29.93,SSE,156,0.0,0.0,66,0.00,,,0.00,95,Wunderground v.1.15,2013-05-09 11:51:00,
2013-05-09 07:01:00,57.4,45.7,29.93,SSE,156,0.0,0.0,65,0.00,,,0.00,113,Wunderground v.1.15,2013-05-09 12:01:00,
2013-05-09 07:06:00,58.0,45.5,29.93,SSE,158,0.0,0.0,63,0.00,,,0.00,123,Wunderground v.1.15,2013-05-09 12:06:00,
2013-05-09 07:16:00,58.9,46.3,29.93,SSE,154,0.0,0.0,63,0.00,,,0.00,139,Wunderground v.1.15,2013-05-09 12:16:00,
2013-05-09 07:26:00,59.6,46.6,29.93,SSE,156,0.0,0.0,62,0.00,,,0.00,149,Wunderground v.1.15,2013-05-09 12:26:00,
2013-05-09 07:31:00,59.9,46.8,29.93,SSE,154,0.0,0.0,62,0.00,,,0.00,144,Wunderground v.1.15,2013-05-09 12:31:00,
2013-05-09 07:41:00,60.5,47.0,29.93,SSE,151,0.0,0.0,61,0.00,,,0.00,109,Wunderground v.1.15,2013-05-09 12:41:00,
2013-05-09 07:51:00,61.1,47.5,29.93,SSE,157,0.0,0.0,61,0.00,,,0.00,97,Wunderground v.1.15,2013-05-09 12:51:00,
2013-05-09 07:56:00,61.2,47.2,29.93,North,359,0.0,0.0,60,0.00,,,0.00,104,Wunderground v.1.15,2013-05-09 12:56:00,
2013-05-09 08:01:00,61.4,47.4,29.93,SSE,154,0.0,0.0,60,0.00,,,0.00,127,Wunderground v.1.15,2013-05-09 13:01:00,
2013-05-09 08:06:00,61.5,47.0,29.93,SSE,156,0.0,0.0,59,0.00,,,0.00,156,Wunderground v.1.15,2013-05-09 13:06:00,
2013-05-09 08:16:00,62.1,47.6,29.93,SSE,153,0.0,0.0,59,0.00,,,0.00,204,Wunderground v.1.15,2013-05-09 13:16:00,
2013-05-09 08:26:00,62.6,47.6,29.93,SSE,150,0.0,0.0,58,0.00,,,0.00,207,Wunderground v.1.15,2013-05-09 13:26:00,
2013-05-09 08:31:00,62.9,48.3,29.93,ENE,76,0.0,0.0,59,0.00,,,0.00,221,Wunderground v.1.15,2013-05-09 13:31:00,
2013-05-09 08:36:00,63.2,48.2,29.94,NNW,328,0.0,0.0,58,0.00,,,0.00,214,Wunderground v.1.15,2013-05-09 13:36:00,
2013-05-09 08:46:00,63.9,47.9,29.93,ENE,72,0.0,0.0,56,0.00,,,0.00,197,Wunderground v.1.15,2013-05-09 13:46:00,
2013-05-09 08:51:00,64.0,48.5,29.93,ENE,70,0.0,0.0,57,0.00,,,0.00,202,Wunderground v.1.15,2013-05-09 13:51:00,
2013-05-09 08:56:00,64.1,48.1,29.93,NE,45,0.0,3.0,56,0.00,,,0.00,216,Wunderground v.1.15,2013-05-09 13:56:00,
2013-05-09 09:06:00,64.3,48.7,29.92,NE,42,0.0,1.0,57,0.00,,,0.00,265,Wunderground v.1.15,2013-05-09 14:06:00,
2013-05-09 09:16:00,64.9,49.3,29.92,NE,48,0.0,0.0,57,0.00,,,0.00,255,Wunderground v.1.15,2013-05-09 14:16:00,
2013-05-09 09:21:00,65.1,49.5,29.93,NE,34,0.0,0.0,57,0.00,,,0.00,241,Wunderground v.1.15,2013-05-09 14:21:00,
2013-05-09 09:31:00,65.2,49.6,29.93,NE,35,0.0,0.0,57,0.00,,,0.00,244,Wunderground v.1.15,2013-05-09 14:31:00,
2013-05-09 09:36:00,65.3,48.7,29.93,ENE,75,0.0,3.0,55,0.00,,,0.00,207,Wunderground v.1.15,2013-05-09 14:36:00,
2013-05-09 09:41:00,65.1,49.0,29.93,ENE,60,1.0,1.0,56,0.00,,,0.00,176,Wunderground v.1.15,2013-05-09 14:41:00,
2013-05-09 09:51:00,64.8,48.7,29.93,ENE,73,1.0,1.0,56,0.00,,,0.00,132,Wunderground v.1.15,2013-05-09 14:51:00,
2013-05-09 09:56:00,64.7,48.6,29.93,East,87,0.0,1.0,56,0.00,,,0.00,127,Wunderground v.1.15,2013-05-09 14:56:00,
2013-05-09 10:01:00,64.7,48.6,29.93,ESE,115,0.0,0.0,56,0.00,,,0.00,148,Wunderground v.1.15,2013-05-09 15:01:00,
2013-05-09 10:11:00,64.3,48.3,29.93,ENE,58,0.0,0.0,56,0.00,,,0.00,162,Wunderground v.1.15,2013-05-09 15:11:00,
2013-05-09 10:21:00,64.1,48.5,29.94,ENE,70,0.0,0.0,57,0.00,,,0.00,181,Wunderground v.1.15,2013-05-09 15:21:00,
2013-05-09 10:31:00,64.6,48.1,29.94,ESE,115,0.0,0.0,55,0.00,,,0.00,279,Wunderground v.1.15,2013-05-09 15:31:00,
2013-05-09 10:36:00,65.0,48.4,29.94,ESE,120,0.0,0.0,55,0.00,,,0.00,350,Wunderground v.1.15,2013-05-09 15:36:00,
2013-05-09 10:41:00,65.4,48.3,29.94,North,359,0.0,0.0,54,0.00,,,0.00,401,Wunderground v.1.15,2013-05-09 15:41:00,
2013-05-09 10:51:00,66.4,49.2,29.94,NE,54,0.0,0.0,54,0.00,,,0.00,461,Wunderground v.1.15,2013-05-09 15:51:00,
2013-05-09 10:56:00,66.5,48.8,29.94,NE,43,0.0,0.0,53,0.00,,,0.00,406,Wunderground v.1.15,2013-05-09 15:56:00,
2013-05-09 11:06:00,66.8,49.1,29.94,NE,45,0.0,0.0,53,0.00,,,0.00,464,Wunderground v.1.15,2013-05-09 16:06:00,
2013-05-09 11:16:00,68.0,49.2,29.94,ENE,74,0.0,0.0,51,0.00,,,0.00,573,Wunderground v.1.15,2013-05-09 16:16:00,
2013-05-09 11:21:00,68.4,49.6,29.93,ENE,70,0.0,0.0,51,0.00,,,0.00,508,Wunderground v.1.15,2013-05-09 16:21:00,
2013-05-09 11:26:00,68.7,49.8,29.93,ESE,109,0.0,0.0,51,0.00,,,0.00,485,Wunderground v.1.15,2013-05-09 16:26:00,
2013-05-09 11:36:00,69.9,50.4,29.92,ESE,120,0.0,0.0,50,0.00,,,0.00,399,Wunderground v.1.15,2013-05-09 16:36:00,
2013-05-09 11:41:00,70.5,50.4,29.92,East,99,0.0,0.0,49,0.00,,,0.00,390,Wunderground v.1.15,2013-05-09 16:41:00,
2013-05-09 11:51:00,70.6,50.0,29.92,ENE,70,1.0,1.0,48,0.00,,,0.00,459,Wunderground v.1.15,2013-05-09 16:51:00,
2013-05-09 11:56:00,71.0,49.7,29.92,SE,135,1.0,1.0,47,0.00,,,0.00,485,Wunderground v.1.15,2013-05-09 16:56:00,
2013-05-09 12:06:00,72.4,50.4,29.92,ESE,112,0.0,0.0,46,0.00,,,0.00,642,Wunderground v.1.15,2013-05-09 17:06:00,
2013-05-09 12:11:00,73.2,50.6,29.91,ESE,108,0.0,0.0,45,0.00,,,0.00,703,Wunderground v.1.15,2013-05-09 17:11:00,
2013-05-09 12:21:00,74.2,50.9,29.91,SE,132,0.0,0.0,44,0.00,,,0.00,371,Wunderground v.1.15,2013-05-09 17:21:00,
2013-05-09 12:26:00,74.4,50.4,29.90,SE,128,0.0,0.0,43,0.00,,,0.00,371,Wunderground v.1.15,2013-05-09 17:26:00,
2013-05-09 12:36:00,73.8,50.5,29.90,SSE,166,1.0,1.0,44,0.00,,,0.00,334,Wunderground v.1.15,2013-05-09 17:36:00,
2013-05-09 12:41:00,73.4,49.5,29.90,South,184,0.0,0.0,43,0.00,,,0.00,339,Wunderground v.1.15,2013-05-09 17:41:00,
2013-05-09 12:51:00,73.4,50.2,29.90,SSW,199,0.0,0.0,44,0.00,,,0.00,325,Wunderground v.1.15,2013-05-09 17:51:00,
2013-05-09 12:56:00,73.5,50.2,29.90,North,359,1.0,1.0,44,0.00,,,0.00,364,Wunderground v.1.15,2013-05-09 17:56:00,
2013-05-09 13:01:00,73.5,50.2,29.89,North,359,1.0,1.0,44,0.00,,,0.00,362,Wunderground v.1.15,2013-05-09 18:01:00,
2013-05-09 13:06:00,73.7,50.4,29.89,South,185,1.0,1.0,44,0.00,,,0.00,304,Wunderground v.1.15,2013-05-09 18:06:00,
2013-05-09 13:16:00,73.6,49.7,29.89,SSE,161,1.0,1.0,43,0.00,,,0.00,304,Wunderground v.1.15,2013-05-09 18:16:00,
2013-05-09 13:21:00,73.9,50.6,29.89,ESE,108,1.0,1.0,44,0.00,,,0.00,283,Wunderground v.1.15,2013-05-09 18:21:00,
2013-05-09 13:31:00,73.3,50.7,29.89,East,80,2.0,2.0,45,0.00,,,0.00,271,Wunderground v.1.15,2013-05-09 18:31:00,
2013-05-09 13:41:00,72.4,51.0,29.89,ENE,68,1.0,1.0,47,0.00,,,0.00,186,Wunderground v.1.15,2013-05-09 18:41:00,
2013-05-09 13:51:00,71.5,50.8,29.89,East,91,1.0,2.0,48,0.00,,,0.00,144,Wunderground v.1.15,2013-05-09 18:51:00,
2013-05-09 13:56:00,71.2,50.5,29.89,East,80,1.0,2.0,48,0.00,,,0.00,236,Wunderground v.1.15,2013-05-09 18:56:00,
2013-05-09 14:01:00,71.0,50.9,29.89,ENE,77,1.0,1.0,49,0.00,,,0.00,378,Wunderground v.1.15,2013-05-09 19:01:00,
2013-05-09 14:11:00,71.2,51.1,29.89,East,87,0.0,0.0,49,0.00,,,0.00,401,Wunderground v.1.15,2013-05-09 19:11:00,
2013-05-09 14:16:00,71.8,51.0,29.89,East,87,0.0,0.0,48,0.00,,,0.00,373,Wunderground v.1.15,2013-05-09 19:16:00,
2013-05-09 14:21:00,72.3,50.9,29.89,South,180,0.0,0.0,47,0.00,,,0.00,295,Wunderground v.1.15,2013-05-09 19:21:00,
2013-05-09 14:31:00,72.7,51.3,29.88,SSW,193,0.0,5.0,47,0.00,,,0.00,299,Wunderground v.1.15,2013-05-09 19:31:00,
2013-05-09 14:36:00,73.0,51.6,29.88,SW,216,3.0,5.0,47,0.00,,,0.00,220,Wunderground v.1.15,2013-05-09 19:36:00,
2013-05-09 14:41:00,73.4,51.9,29.88,North,359,3.0,4.0,47,0.00,,,0.00,156,Wunderground v.1.15,2013-05-09 19:41:00,
2013-05-09 14:51:00,73.2,51.8,29.88,North,359,4.0,6.0,47,0.00,,,0.00,76,Wunderground v.1.15,2013-05-09 19:51:00,
2013-05-09 14:56:00,73.0,52.1,29.88,North,359,6.0,6.0,48,0.00,,,0.00,135,Wunderground v.1.15,2013-05-09 19:56:00,
2013-05-09 15:01:00,72.7,52.4,29.88,North,359,6.0,6.0,49,0.00,,,0.00,107,Wunderground v.1.15,2013-05-09 20:01:00,
2013-05-09 15:11:00,71.9,54.3,29.88,SSW,206,7.0,7.0,54,0.00,,,0.00,139,Wunderground v.1.15,2013-05-09 20:11:00,
2013-05-09 15:21:00,71.1,54.1,29.87,North,359,4.0,6.0,55,0.00,,,0.00,146,Wunderground v.1.15,2013-05-09 20:21:00,
2013-05-09 15:31:00,71.3,53.8,29.87,SSW,208,4.0,5.0,54,0.00,,,0.00,67,Wunderground v.1.15,2013-05-09 20:31:00,
2013-05-09 15:36:00,71.4,53.4,29.87,North,359,6.0,9.0,53,0.00,,,0.00,51,Wunderground v.1.15,2013-05-09 20:36:00,
2013-05-09 15:41:00,70.8,51.8,29.87,SW,216,12.0,14.0,51,0.00,,,0.00,74,Wunderground v.1.15,2013-05-09 20:41:00,
2013-05-09 15:51:00,69.9,52.0,29.87,North,359,12.0,12.0,53,0.00,,,0.00,174,Wunderground v.1.15,2013-05-09 20:51:00,
2013-05-09 16:01:00,69.9,53.0,29.87,North,359,8.0,9.0,55,0.00,,,0.00,179,Wunderground v.1.15,2013-05-09 21:01:00,
2013-05-09 16:06:00,69.9,53.5,29.87,SSW,212,9.0,9.0,56,0.00,,,0.00,169,Wunderground v.1.15,2013-05-09 21:06:00,
2013-05-09 16:16:00,69.7,54.3,29.87,North,359,7.0,11.0,58,0.00,,,0.00,130,Wunderground v.1.15,2013-05-09 21:16:00,
2013-05-09 16:21:00,69.1,56.4,29.87,WSW,249,6.0,6.0,64,0.00,,,0.00,114,Wunderground v.1.15,2013-05-09 21:21:00,
2013-05-09 16:31:00,68.1,56.3,29.87,WSW,242,4.0,7.0,66,0.00,,,0.00,116,Wunderground v.1.15,2013-05-09 21:31:00,
2013-05-09 16:41:00,68.1,55.5,29.87,SW,225,5.0,5.0,64,0.00,,,0.00,134,Wunderground v.1.15,2013-05-09 21:41:00,
2013-05-09 16:51:00,68.4,54.9,29.87,SW,223,4.0,4.0,62,0.00,,,0.00,70,Wunderground v.1.15,2013-05-09 21:51:00,
2013-05-09 16:56:00,68.5,54.5,29.86,North,359,3.0,4.0,61,0.00,,,0.00,79,Wunderground v.1.15,2013-05-09 21:56:00,
2013-05-09 17:06:00,68.5,53.6,29.86,North,359,7.0,7.0,59,0.00,,,0.00,114,Wunderground v.1.15,2013-05-09 22:06:00,
2013-05-09 17:16:00,68.3,53.9,29.86,North,359,7.0,8.0,60,0.00,,,0.00,90,Wunderground v.1.15,2013-05-09 22:16:00,
2013-05-09 17:26:00,68.2,53.8,29.85,SSW,211,8.0,10.0,60,0.00,,,0.00,74,Wunderground v.1.15,2013-05-09 22:26:00,
2013-05-09 17:31:00,68.1,54.1,29.85,North,359,7.0,13.0,61,0.00,,,0.00,63,Wunderground v.1.15,2013-05-09 22:31:00,
2013-05-09 17:41:00,67.5,55.3,29.85,SSW,206,8.0,10.0,65,0.00,,,0.00,49,Wunderground v.1.15,2013-05-09 22:41:00,
2013-05-09 17:51:00,67.2,55.9,29.85,SSW,207,6.0,6.0,67,0.00,,,0.00,37,Wunderground v.1.15,2013-05-09 22:51:00,
2013-05-09 17:56:00,66.9,55.6,29.85,South,185,6.0,6.0,67,0.00,,,0.00,47,Wunderground v.1.15,2013-05-09 22:56:00,
2013-05-09 18:06:00,66.4,56.7,29.84,SSW,205,4.0,5.0,71,0.00,,,0.00,44,Wunderground v.1.15,2013-05-09 23:06:00,
2013-05-09 18:16:00,66.0,56.7,29.84,North,359,4.0,4.0,72,0.00,,,0.00,32,Wunderground v.1.15,2013-05-09 23:16:00,
2013-05-09 18:21:00,65.8,56.5,29.84,North,359,2.0,2.0,72,0.00,,,0.00,30,Wunderground v.1.15,2013-05-09 23:21:00,
2013-05-09 18:31:00,65.4,56.9,29.84,North,359,1.0,1.0,74,0.00,,,0.00,30,Wunderground v.1.15,2013-05-09 23:31:00,
2013-05-09 18:36:00,65.2,57.1,29.84,South,176,0.0,1.0,75,0.00,,,0.00,30,Wunderground v.1.15,2013-05-09 23:36:00,
2013-05-09 18:41:00,65.0,57.2,29.84,South,173,0.0,0.0,76,0.00,,,0.00,28,Wunderground v.1.15,2013-05-09 23:41:00,
2013-05-09 18:51:00,64.7,58.0,29.83,SE,143,0.0,0.0,79,0.00,,,0.00,30,Wunderground v.1.15,2013-05-09 23:51:00,
2013-05-09 19:01:00,64.6,58.6,29.83,SE,126,0.0,0.0,81,0.00,,,0.01,21,Wunderground v.1.15,2013-05-10 00:01:00,
2013-05-09 19:11:00,64.3,58.7,29.83,ESE,113,2.0,4.0,82,0.00,,,0.01,33,Wunderground v.1.15,2013-05-10 00:11:00,
2013-05-09 19:21:00,61.8,54.2,29.84,NE,47,4.0,8.0,76,0.00,,,0.01,9,Wunderground v.1.15,2013-05-10 00:21:00,
2013-05-09 19:26:00,58.7,52.5,29.84,NE,52,6.0,8.0,80,0.00,,,0.01,9,Wunderground v.1.15,2013-05-10 00:26:00,
2013-05-09 19:36:00,55.0,49.9,29.85,NE,50,6.0,7.0,83,0.00,,,0.01,5,Wunderground v.1.15,2013-05-10 00:36:00,
2013-05-09 19:41:00,53.9,49.2,29.85,NNE,30,6.0,6.0,84,0.00,,,0.01,5,Wunderground v.1.15,2013-05-10 00:41:00,
2013-05-09 19:51:00,52.1,48.3,29.85,ENE,64,7.0,7.0,87,0.00,,,0.01,0,Wunderground v.1.15,2013-05-10 00:51:00,
2013-05-09 20:01:00,51.1,47.4,29.85,NE,35,5.0,8.0,87,0.00,,,0.01,0,Wunderground v.1.15,2013-05-10 01:01:00,
2013-05-09 20:06:00,50.7,47.3,29.85,NE,49,5.0,8.0,88,0.00,,,0.01,0,Wunderground v.1.15,2013-05-10 01:06:00,
2013-05-09 20:16:00,50.1,47.0,29.85,NNE,18,5.0,8.0,89,0.00,,,0.02,0,Wunderground v.1.15,2013-05-10 01:16:00,
2013-05-09 20:21:00,49.6,46.2,29.86,NE,38,6.0,6.0,88,0.00,,,0.02,0,Wunderground v.1.15,2013-05-10 01:21:00,
2013-05-09 20:26:00,49.2,46.1,29.86,NE,49,6.0,6.0,89,0.04,,,0.03,0,Wunderground v.1.15,2013-05-10 01:26:00,
2013-05-09 20:36:00,48.6,45.8,29.86,NE,35,6.0,6.0,90,0.11,,,0.05,0,Wunderground v.1.15,2013-05-10 01:36:00,
2013-05-09 20:41:00,48.4,45.6,29.86,NNE,22,6.0,6.0,90,0.07,,,0.05,0,Wunderground v.1.15,2013-05-10 01:41:00,
2013-05-09 20:51:00,48.3,45.8,29.86,NE,51,5.0,5.0,91,0.05,,,0.06,0,Wunderground v.1.15,2013-05-10 01:51:00,
2013-05-09 20:56:00,48.3,45.8,29.86,ENE,63,3.0,5.0,91,0.05,,,0.07,0,Wunderground v.1.15,2013-05-10 01:56:00,
2013-05-09 21:06:00,47.9,45.4,29.87,NE,43,4.0,7.0,91,0.06,,,0.08,0,Wunderground v.1.15,2013-05-10 02:06:00,
2013-05-09 21:16:00,47.6,45.4,29.87,NE,50,6.0,6.0,92,0.06,,,0.08,0,Wunderground v.1.15,2013-05-10 02:16:00,
2013-05-09 21:26:00,47.4,45.2,29.86,NE,39,4.0,5.0,92,0.04,,,0.09,0,Wunderground v.1.15,2013-05-10 02:26:00,
2013-05-09 21:31:00,47.2,45.0,29.86,NNE,24,4.0,7.0,92,0.04,,,0.09,0,Wunderground v.1.15,2013-05-10 02:31:00,
2013-05-09 21:41:00,46.9,44.7,29.87,ENE,75,2.0,5.0,92,0.06,,,0.10,0,Wunderground v.1.15,2013-05-10 02:41:00,
2013-05-09 21:51:00,46.5,44.3,29.87,ENE,60,5.0,7.0,92,0.07,,,0.12,0,Wunderground v.1.15,2013-05-10 02:51:00,
2013-05-09 21:56:00,46.3,44.4,29.87,NE,54,5.0,7.0,93,0.12,,,0.13,0,Wunderground v.1.15,2013-05-10 02:56:00,
2013-05-09 22:06:00,45.9,44.0,29.87,NE,52,4.0,5.0,93,0.16,,,0.17,0,Wunderground v.1.15,2013-05-10 03:06:00,
2013-05-09 22:16:00,45.7,44.1,29.86,ENE,68,3.0,7.0,94,0.18,,,0.20,0,Wunderground v.1.15,2013-05-10 03:16:00,
2013-05-09 22:26:00,45.4,43.8,29.86,NE,35,3.0,4.0,94,0.09,,,0.23,0,Wunderground v.1.15,2013-05-10 03:26:00,
2013-05-09 22:31:00,45.4,43.8,29.85,NNE,33,1.0,1.0,94,0.09,,,0.23,0,Wunderground v.1.15,2013-05-10 03:31:00,
2013-05-09 22:41:00,45.2,43.9,29.85,NE,48,4.0,4.0,95,0.06,,,0.24,0,Wunderground v.1.15,2013-05-10 03:41:00,
2013-05-09 22:51:00,45.0,43.7,29.85,North,11,3.0,5.0,95,0.04,,,0.25,0,Wunderground v.1.15,2013-05-10 03:51:00,
2013-05-09 22:56:00,45.0,43.7,29.85,NNE,18,4.0,5.0,95,0.04,,,0.25,0,Wunderground v.1.15,2013-05-10 03:56:00,
2013-05-09 23:01:00,44.8,43.5,29.84,NE,50,4.0,4.0,95,0.04,,,0.25,0,Wunderground v.1.15,2013-05-10 04:01:00,
2013-05-09 23:11:00,44.6,43.3,29.84,NNE,12,5.0,5.0,95,0.00,,,0.25,0,Wunderground v.1.15,2013-05-10 04:11:00,
2013-05-09 23:16:00,44.7,43.4,29.84,NE,37,4.0,5.0,95,0.00,,,0.25,0,Wunderground v.1.15,2013-05-10 04:16:00,
2013-05-09 23:21:00,44.7,43.4,29.83,ENE,58,2.0,8.0,95,0.00,,,0.25,0,Wunderground v.1.15,2013-05-10 04:21:00,
2013-05-09 23:31:00,44.2,42.9,29.83,NE,37,6.0,6.0,95,0.00,,,0.26,0,Wunderground v.1.15,2013-05-10 04:31:00,
2013-05-09 23:36:00,44.2,42.9,29.83,NE,43,5.0,6.0,95,0.00,,,0.26,0,Wunderground v.1.15,2013-05-10 04:36:00,
2013-05-09 23:41:00,44.3,43.2,29.83,NNE,29,4.0,4.0,96,0.00,,,0.26,0,Wunderground v.1.15,2013-05-10 04:41:00,
2013-05-09 23:51:00,44.3,43.2,29.83,NNE,16,4.0,7.0,96,0.00,,,0.26,0,Wunderground v.1.15,2013-05-10 04:51:00,